KK4OHF Weather Reports


time (UTC)temp
F
wind
direction
speed
knots
gust
knots
rain 1hr
in
rain 24hr
in
rain mn
in
humidity
%
barometer
mb
20260509162005 64 273 1.7 7.0 0.00 0.00 0.00 87 1012.2
20260509161504 64 305 1.7 2.6 0.00 0.00 0.00 88 1012.2
20260509160505 64 256 0.9 4.3 0.00 0.00 0.00 89 1012.2
20260509160005 64 241 2.6 5.2 0.00 0.00 0.00 90 1012.2
20260509155504 63 243 1.7 2.6 0.00 0.00 0.00 91 1012.2
20260509155005 63 297 1.7 6.1 0.00 0.00 0.00 91 1012.5
20260509154505 63 226 0.0 2.6 0.00 0.00 0.00 92 1012.5
20260509154006 63 247 0.9 2.6 0.00 0.00 0.00 92 1012.5
20260509153505 63 248 0.9 2.6 0.00 0.00 0.00 92 1012.5
20260509153005 63 272 0.9 2.6 0.00 0.00 0.00 92 1012.5
20260509152505 63 259 0.0 2.6 0.00 0.00 0.00 92 1012.5
20260509152004 63 263 2.6 4.3 0.00 0.00 0.00 92 1012.5
20260509151506 63 276 1.7 2.6 0.00 0.00 0.00 93 1012.5
20260509151006 62 283 0.9 2.6 0.00 0.00 0.00 93 1012.5
20260509150504 62 272 0.9 2.6 0.00 0.00 0.00 93 1012.5
20260509150004 62 255 1.7 2.6 0.00 0.00 0.00 93 1012.5
20260509145006 62 143 0.9 2.6 0.00 0.00 0.00 93 1012.5
20260509144506 62 187 0.9 2.6 0.00 0.00 0.00 93 1012.5
20260509144006 62 231 0.9 2.6 0.00 0.00 0.00 93 1012.5
20260509143505 62 202 0.0 1.7 0.00 0.00 0.00 93 1012.5
20260509143006 62 202 0.0 1.7 0.00 0.00 0.00 93 1012.5
20260509142505 62 202 0.0 0.9 0.00 0.00 0.00 92 1012.5
20260509141505 62 141 0.9 1.7 0.00 0.00 0.00 92 1012.5
20260509141005 62 257 0.0 2.6 0.00 0.00 0.00 92 1012.5
20260509140006 62 196 0.9 1.7 0.00 0.00 0.00 92 1012.5
20260509135506 62 140 0.9 1.7 0.00 0.00 0.00 92 1012.5
20260509135006 61 146 0.0 1.7 0.00 0.00 0.00 92 1012.5
20260509134505 61 165 1.7 4.3 0.00 0.00 0.00 92 1012.5
20260509134005 61 206 0.0 1.7 0.00 0.00 0.00 92 1012.5
20260509133505 61 192 0.0 0.9 0.00 0.00 0.00 92 1012.5
20260509133005 61 164 0.9 2.6 0.00 0.00 0.00 92 1012.5
20260509132505 61 204 0.0 2.6 0.00 0.00 0.00 92 1012.5
20260509132005 61 253 0.0 2.6 0.00 0.00 0.00 92 1012.5
20260509131505 61 256 1.7 4.3 0.00 0.00 0.00 92 1012.5
20260509131006 61 275 0.0 4.3 0.00 0.00 0.00 92 1012.5
20260509130505 61 232 0.9 2.6 0.00 0.00 0.00 92 1012.5
20260509130005 61 88 0.0 1.7 0.00 0.00 0.00 92 1012.5
20260509125504 61 208 0.9 1.7 0.00 0.00 0.00 93 1012.5
20260509125005 61 194 0.9 4.3 0.00 0.00 0.00 93 1012.5
20260509124505 61 150 0.0 0.9 0.00 0.00 0.00 93 1012.5
20260509124007 60 222 0.0 1.7 0.00 0.00 0.00 93 1012.5
20260509123505 60 287 0.0 2.6 0.00 0.00 0.00 93 1012.5
20260509122505 60 196 0.0 0.9 0.00 0.00 0.00 93 1012.5
20260509122006 60 196 0.0 0.9 0.00 0.00 0.00 93 1012.5
20260509121505 60 196 0.0 0.9 0.00 0.00 0.00 93 1012.5
20260509121005 60 279 0.0 0.9 0.00 0.00 0.00 93 1012.5
20260509120505 60 278 0.0 0.0 0.00 0.00 0.00 93 1012.5
20260509115505 59 278 0.9 1.7 0.00 0.00 0.00 93 1012.5
20260509115005 59 278 0.0 2.6 0.00 0.00 0.00 93 1012.5
20260509114005 59 246 0.0 0.9 0.00 0.00 0.00 93 1012.5
20260509113505 59 246 0.0 0.9 0.00 0.00 0.00 93 1012.5
20260509113004 59 246 0.9 1.7 0.00 0.00 0.00 93 1012.5
20260509112005 59 242 0.0 0.9 0.00 0.00 0.00 93 1012.5
20260509111505 59 242 0.0 0.9 0.00 0.00 0.00 93 1012.5
20260509111005 59 242 0.9 2.6 0.00 0.00 0.00 93 1012.5
20260509110506 59 291 0.0 1.7 0.00 0.00 0.00 93 1012.5
20260509110005 59 291 0.0 1.7 0.00 0.00 0.00 93 1012.5
20260509105506 59 291 0.0 0.9 0.00 0.00 0.00 93 1012.5
20260509105005 59 291 0.0 0.9 0.00 0.00 0.00 93 1012.5
20260509103505 59 286 0.9 2.6 0.00 0.00 0.00 93 1012.5
20260509103007 59 273 0.0 1.7 0.00 0.00 0.00 93 1012.5
20260509102505 59 272 0.9 1.7 0.00 0.00 0.00 93 1012.5
20260509102005 59 130 0.9 1.7 0.00 0.00 0.00 93 1012.5
20260509101505 59 181 0.9 1.7 0.00 0.00 0.00 93 1012.5
20260509101005 59 234 0.9 2.6 0.00 0.00 0.00 93 1012.5
20260509100006 59 197 0.0 1.7 0.00 0.00 0.00 93 1012.5
20260509095506 58 263 0.9 2.6 0.00 0.00 0.00 93 1012.5
20260509095006 58 209 0.0 0.9 0.00 0.00 0.00 93 1012.5
20260509094505 58 216 0.0 1.7 0.00 0.00 0.00 93 1012.5
20260509094005 58 288 0.9 1.7 0.00 0.00 0.00 93 1012.5
20260509093506 58 245 0.9 1.7 0.00 0.00 0.00 93 1012.5
20260509093006 57 243 0.9 2.6 0.00 0.00 0.00 93 1012.5
20260509092505 57 130 0.0 0.9 0.00 0.00 0.00 93 1012.5
20260509092006 57 146 0.0 1.7 0.00 0.00 0.00 93 1012.5
20260509091505 57 223 0.0 0.0 0.00 0.00 0.00 93 1012.5
20260509090505 56 148 0.0 0.0 0.00 0.00 0.00 93 1012.5
20260509090006 56 148 0.0 0.0 0.00 0.00 0.00 93 1012.5
20260509085505 56 148 0.0 0.0 0.00 0.00 0.00 93 1012.5
20260509085005 56 148 0.0 0.0 0.00 0.00 0.00 93 1012.5
20260509084505 56 148 0.0 0.0 0.00 0.00 0.00 93 1012.5
20260509083506 55 148 0.0 0.9 0.00 0.00 0.00 93 1012.5
20260509083005 55 218 0.0 0.0 0.00 0.00 0.00 93 1012.5
20260509082505 55 218 0.0 0.0 0.00 0.00 0.00 93 1012.5
20260509081504 55 218 0.0 0.0 0.00 0.00 0.00 93 1012.5
20260509080505 55 218 0.0 0.0 0.00 0.00 0.00 93 1012.5
20260509080005 54 218 0.0 0.0 0.00 0.00 0.00 93 1012.5
20260509075505 54 218 0.0 0.0 0.00 0.00 0.00 93 1012.5
20260509075005 54 218 0.0 0.0 0.00 0.00 0.00 93 1012.5
20260509074505 54 218 0.0 0.0 0.00 0.00 0.00 93 1012.5
20260509074005 54 218 0.0 0.0 0.00 0.00 0.00 93 1012.5
20260509073505 54 218 0.0 0.0 0.00 0.00 0.00 93 1012.5
20260509073005 54 218 0.0 0.0 0.00 0.00 0.00 93 1012.5
20260509071506 54 218 0.0 0.0 0.00 0.00 0.00 93 1012.5
20260509071005 54 218 0.0 0.0 0.00 0.00 0.00 93 1012.5
20260509070505 54 218 0.0 0.0 0.00 0.00 0.00 93 1012.5
20260509070006 54 218 0.0 0.0 0.00 0.00 0.00 93 1012.5
20260509065506 54 218 0.0 0.0 0.00 0.00 0.00 93 1012.5
20260509065005 54 218 0.0 0.0 0.00 0.00 0.00 93 1012.5
20260509064506 54 218 0.0 0.0 0.00 0.00 0.00 93 1012.5
20260509064005 54 218 0.0 0.0 0.00 0.00 0.00 93 1012.5
20260509063506 54 218 0.0 0.0 0.00 0.00 0.00 93 1012.5
20260509063005 54 218 0.0 0.0 0.00 0.00 0.00 93 1012.5
20260509062006 55 218 0.0 0.0 0.00 0.00 0.00 93 1012.5
20260509061505 55 218 0.0 0.0 0.00 0.00 0.00 93 1012.5
20260509060505 55 218 0.0 0.0 0.00 0.00 0.00 93 1012.5
20260509060005 55 218 0.0 0.0 0.00 0.00 0.00 93 1012.5
20260509055506 55 218 0.0 0.0 0.00 0.00 0.00 93 1012.5
20260509055005 55 218 0.0 0.0 0.00 0.00 0.00 93 1012.5
20260509054505 55 218 0.0 0.0 0.00 0.00 0.00 93 1012.5
20260509054006 55 218 0.0 0.0 0.00 0.00 0.00 93 1012.5
20260509053506 55 218 0.0 0.0 0.00 0.00 0.00 93 1012.5
20260509053005 55 218 0.0 0.0 0.00 0.00 0.00 93 1012.5
20260509052005 55 218 0.0 0.0 0.00 0.00 0.00 93 1013.1
20260509051505 55 218 0.0 0.0 0.00 0.00 0.00 92 1013.1
20260509051005 55 218 0.0 0.0 0.00 0.00 0.00 92 1013.1
20260509050505 55 218 0.0 0.0 0.00 0.00 0.00 92 1013.1
20260509045505 55 218 0.0 0.0 0.00 0.00 0.00 92 1013.1
20260509045005 55 218 0.0 0.0 0.00 0.00 0.00 92 1013.1
20260509044505 55 218 0.0 0.0 0.00 0.00 0.00 92 1013.1
20260509044006 55 218 0.0 0.0 0.00 0.00 0.00 92 1013.1
20260509043006 56 218 0.0 0.0 0.00 0.00 0.00 92 1013.1
20260509042506 56 218 0.0 0.0 0.00 0.00 0.00 92 1013.1
20260509042005 56 218 0.0 0.0 0.00 0.00 0.00 92 1013.1
20260509041005 56 218 0.0 0.0 0.00 0.00 0.00 91 1013.1
20260509040505 56 218 0.0 0.0 0.00 0.00 0.00 91 1013.1
20260509040005 56 218 0.0 0.0 0.00 0.00 0.00 91 1013.1
20260509035505 56 218 0.0 0.0 0.00 0.00 0.00 91 1013.1
20260509035006 56 218 0.0 0.0 0.00 0.00 0.00 91 1013.1
20260509034504 56 218 0.0 0.0 0.00 0.00 0.00 91 1013.1
20260509034006 56 218 0.0 0.0 0.00 0.00 0.00 91 1013.1
20260509033006 57 218 0.0 0.0 0.00 0.00 0.00 90 1013.1
20260509032505 57 218 0.0 0.0 0.00 0.00 0.00 90 1013.1
20260509032006 57 218 0.0 0.0 0.00 0.00 0.00 90 1013.1
20260509031506 57 218 0.0 0.0 0.00 0.00 0.00 90 1013.1
20260509031005 57 218 0.0 0.0 0.00 0.00 0.00 90 1013.1
20260509030505 57 218 0.0 0.0 0.00 0.00 0.00 90 1013.1
20260509030005 57 218 0.0 0.0 0.00 0.00 0.00 89 1012.9
20260509025505 57 218 0.0 0.0 0.00 0.00 0.00 89 1012.9
20260509025005 57 218 0.0 0.0 0.00 0.00 0.00 89 1012.9
20260509024506 57 218 0.0 0.0 0.00 0.00 0.00 89 1012.9
20260509024005 58 218 0.0 0.0 0.00 0.00 0.00 89 1012.9
20260509023005 58 218 0.0 0.0 0.00 0.00 0.00 88 1012.9
20260509022006 58 218 0.0 0.0 0.00 0.00 0.00 88 1012.9
20260509021506 58 218 0.0 0.0 0.00 0.00 0.00 88 1012.9
20260509021006 59 218 0.0 0.0 0.00 0.00 0.00 88 1012.9
20260509020505 59 218 0.0 0.0 0.00 0.00 0.00 87 1012.9
20260509020005 59 218 0.0 0.0 0.00 0.00 0.00 87 1012.9
20260509015504 59 218 0.0 0.0 0.00 0.00 0.00 86 1012.9
20260509014506 60 218 0.0 0.0 0.00 0.00 0.00 83 1012.9
20260509014005 61 218 0.0 0.0 0.00 0.00 0.00 82 1012.9
20260509013006 61 218 0.0 0.0 0.00 0.00 0.00 82 1012.9
20260509012506 61 218 0.0 0.0 0.00 0.00 0.00 83 1012.9
20260509012005 61 218 0.0 0.0 0.00 0.00 0.00 83 1012.9
20260509011005 61 218 0.0 0.0 0.00 0.00 0.00 80 1012.9
20260509010505 61 218 0.0 0.0 0.00 0.00 0.00 80 1012.9
20260509010005 61 218 0.0 0.0 0.00 0.00 0.00 79 1012.9
20260509005505 62 218 0.0 0.0 0.00 0.00 0.00 79 1012.9
20260509005006 62 218 0.0 0.0 0.00 0.00 0.00 79 1012.9
20260509004006 62 218 0.0 0.0 0.00 0.00 0.00 78 1012.9
20260509003505 62 218 0.0 0.0 0.00 0.00 0.00 78 1012.9
20260509002505 62 218 0.0 0.0 0.00 0.00 0.00 78 1012.9
20260509002005 62 218 0.0 0.0 0.00 0.00 0.00 79 1012.9
20260509001505 63 218 0.0 0.0 0.00 0.00 0.00 79 1012.9
20260509001005 63 218 0.0 0.0 0.00 0.00 0.00 79 1012.9
20260509000505 63 218 0.0 0.0 0.00 0.00 0.00 79 1012.9
20260508235505 63 218 0.0 0.0 0.00 0.00 0.00 79 1012.9
20260508235005 63 218 0.0 0.0 0.00 0.00 0.00 79 1012.9
20260508234505 64 218 0.0 0.0 0.00 0.00 0.00 77 1012.9
20260508234005 64 218 0.0 0.0 0.00 0.00 0.00 76 1012.9
20260508233505 64 218 0.0 0.0 0.00 0.00 0.00 75 1012.9
20260508232005 65 138 0.0 0.0 0.00 0.00 0.00 74 1012.9
20260508231504 65 138 0.0 0.0 0.00 0.00 0.00 72 1012.9
20260508231005 65 138 0.0 0.0 0.00 0.00 0.00 72 1012.9
20260508230505 65 138 0.0 0.0 0.00 0.00 0.00 70 1012.9
20260508230005 66 138 0.0 0.0 0.00 0.00 0.00 68 1012.9
20260508225505 66 138 0.0 0.0 0.00 0.00 0.00 68 1012.9
20260508224505 66 138 0.0 0.0 0.00 0.00 0.00 67 1012.9
20260508224005 66 138 0.0 0.0 0.00 0.00 0.00 66 1013.2
20260508222505 67 128 0.0 0.0 0.00 0.00 0.00 62 1013.2
20260508222005 67 219 0.0 0.0 0.00 0.00 0.00 63 1013.2
20260508221505 67 128 0.0 0.0 0.00 0.00 0.00 63 1013.2
20260508221006 67 290 0.0 0.0 0.00 0.00 0.00 62 1013.2
20260508220506 68 244 0.0 0.0 0.00 0.00 0.00 61 1013.2
20260508220005 68 143 0.0 0.0 0.00 0.00 0.00 60 1013.2
20260508215504 68 145 0.0 0.0 0.00 0.00 0.00 61 1013.2
20260508214506 68 340 0.0 0.0 0.00 0.00 0.00 60 1013.2
20260508214005 68 327 0.0 0.0 0.00 0.00 0.00 60 1013.2
20260508213505 68 50 0.0 0.0 0.00 0.00 0.00 62 1013.2
20260508213005 68 0 0.0 0.0 0.00 0.00 0.00 60 1013.2
20260508212506 68 338 0.0 0.0 0.00 0.00 0.00 58 1013.2
20260508212005 69 96 0.0 0.9 0.00 0.00 0.00 58 1013.2
20260508211504 69 136 0.0 0.0 0.00 0.00 0.00 59 1013.2
20260508211007 69 139 0.0 0.0 0.00 0.00 0.00 58 1013.2
20260508210505 69 96 0.0 0.0 0.00 0.00 0.00 59 1013.2
20260508210006 69 155 0.0 0.0 0.00 0.00 0.00 59 1013.1
20260508205505 69 74 0.0 0.0 0.00 0.00 0.00 58 1013.1
20260508205006 70 156 0.0 0.0 0.00 0.00 0.00 57 1013.1
20260508204505 70 186 0.0 0.0 0.00 0.00 0.00 54 1013.1
20260508203505 70 117 0.0 0.0 0.00 0.00 0.00 55 1013.1
20260508202505 70 190 0.0 0.0 0.00 0.00 0.00 53 1013.1
20260508202006 70 150 0.0 0.0 0.00 0.00 0.00 54 1013.1
20260508201505 70 133 0.0 0.0 0.00 0.00 0.00 52 1013.1
20260508201005 71 136 0.0 1.7 0.00 0.00 0.00 51 1013.1
20260508200005 71 60 0.0 0.0 0.00 0.00 0.00 54 1013.1
20260508195506 71 114 0.0 0.0 0.00 0.00 0.00 52 1013.1
20260508195005 71 114 0.0 0.0 0.00 0.00 0.00 51 1013.1
20260508194506 70 114 0.0 0.0 0.00 0.00 0.00 53 1013.1
20260508193505 71 105 0.0 0.0 0.00 0.00 0.00 51 1013.6
20260508193006 71 118 0.0 0.0 0.00 0.00 0.00 50 1013.9
20260508192505 71 101 0.0 0.0 0.00 0.00 0.00 50 1013.9
20260508191505 71 103 0.0 0.0 0.00 0.00 0.00 50 1013.9
20260508191005 72 108 0.0 0.0 0.00 0.00 0.00 51 1013.9
20260508185505 72 127 0.0 1.7 0.00 0.00 0.00 50 1015.2
20260508184505 72 28 0.0 2.6 0.00 0.00 0.00 51 1015.2
20260508184007 71 262 0.9 2.6 0.00 0.00 0.00 48 1015.2
20260508183505 72 82 0.0 0.0 0.00 0.00 0.00 51 1015.2
20260508183006 72 201 0.0 0.0 0.00 0.00 0.00 46 1015.2
20260508182505 73 250 0.0 0.0 0.00 0.00 0.00 46 1015.2
20260508182007 72 196 0.0 0.0 0.00 0.00 0.00 50 1015.2
20260508181506 72 77 0.0 0.0 0.00 0.00 0.00 50 1015.2
20260508180504 71 12 0.0 0.0 0.00 0.00 0.00 47 1015.2
20260508180005 72 101 0.0 0.0 0.00 0.00 0.00 47 1015.2
20260508175505 71 313 0.0 0.0 0.00 0.00 0.00 50 1015.2
20260508175005 71 146 0.0 0.0 0.00 0.00 0.00 49 1015.2
20260508174505 70 24 0.0 0.0 0.00 0.00 0.00 48 1015.2
20260508174005 71 352 0.0 0.0 0.00 0.00 0.00 48 1015.2
20260508173005 70 22 0.0 0.0 0.00 0.00 0.00 49 1015.2
20260508172505 71 346 0.0 0.0 0.00 0.00 0.00 46 1015.2
20260508172005 70 277 0.0 0.9 0.00 0.00 0.00 46 1015.2
20260508171005 70 19 0.0 0.0 0.00 0.00 0.00 48 1017.3
20260508170506 69 15 0.0 0.0 0.00 0.00 0.00 48 1017.3
20260508170006 71 38 0.0 0.0 0.00 0.00 0.00 51 1017.3
20260508165505 71 107 0.0 0.9 0.00 0.00 0.00 47 1017.3
20260508165005 70 91 0.0 1.7 0.00 0.00 0.00 53 1017.3
20260508164506 70 19 0.0 0.0 0.00 0.00 0.00 51 1017.3
20260508164005 69 224 0.0 0.0 0.00 0.00 0.00 51 1017.3
20260508163505 69 134 0.0 0.0 0.00 0.00 0.00 54 1017.3